Change the Weather History Date:

Monday, April 9, 2012

  Actual Average Record
Temperature  
Mean Temperature 54 °F 45 °F  
Max Temperature 78 °F 62 °F 78 °F (2012)
Min Temperature 30 °F 28 °F 19 °F (1998)
Degree Days  
Heating Degree Days 11 20  
Month to date heating degree days 171 188  
Since 1 July heating degree days 5436 5718  
Cooling Degree Days 0 0  
Month to date cooling degree days 0 0  
Year to date cooling degree days 0 0  
Growing Degree Days 4 (Base 50)    
Moisture  
Dew Point 15 °F    
Average Humidity 33    
Maximum Humidity 58    
Minimum Humidity 7    
Precipitation  
Precipitation 0.00 in 0.04 in 0.46 in (2008)
Month to date precipitation T 0.33  
Year to date precipitation 2.21 3.41  
Sea Level Pressure  
Sea Level Pressure 30.04 in    
Wind  
Wind Speed 6 mph (SE)    
Max Wind Speed 21 mph    
Max Gust Speed 30 mph    
Visibility 10 miles    
Events      
T = Trace of Precipitation, MM = Missing Value Source: NWS Daily Summary

Daily Weather History Graph

Daily Weather History Graph

Search for Another Location

Airport or City:

Trip Planner

Search our weather history database for the weather conditions in past years. The results will help you decide how hot, cold, wet, or windy it might be!

Date:

Astronomy

Apr. 09, 2012 Rise Set
Actual Time 6:47 AM MDT 7:44 PM MDT
Civil Twilight 6:20 AM MDT 8:11 PM MDT
Nautical Twilight 5:49 AM MDT 8:43 PM MDT
Astronomical Twilight 5:16 AM MDT 9:15 PM MDT
Moon 11:38 PM MDT (4/9) 8:42 AM MDT (4/9)
Length of Visible Light 13h 50m
Length of Day
12h 57m
Waning Gibbous, 88% of the Moon is Illuminated
Apr 9
Waning Gibbous
Apr 13
Last Quarter
Apr 21
New
Apr 29
First Quarter
May 5
Full

Hourly Weather History & Observations

Time (MDT) Temp. Windchill Dew Point Humidity Pressure Visibility Wind Dir Wind Speed Gust Speed Precip Events Conditions
12:53 AM 39.9 °F 35.8 °F 17.1 °F 40% 30.08 in 10.0 mi ENE 5.8 mph - N/A   Clear
1:53 AM 39.0 °F - 19.0 °F 45% 30.07 in 10.0 mi Calm Calm - N/A   Clear
2:53 AM 36.0 °F - 18.0 °F 48% 30.06 in 10.0 mi Calm Calm - N/A   Partly Cloudy
3:53 AM 33.1 °F - 18.0 °F 54% 30.07 in 10.0 mi Calm Calm - N/A   Partly Cloudy
4:53 AM 30.9 °F - 17.1 °F 57% 30.08 in 10.0 mi Calm Calm - N/A   Clear
5:53 AM 30.0 °F 24.1 °F 18.0 °F 61% 30.10 in 10.0 mi ENE 5.8 mph - N/A   Clear
6:53 AM 30.9 °F 25.2 °F 18.0 °F 59% 30.12 in 10.0 mi ENE 5.8 mph - N/A   Clear
7:53 AM 37.9 °F 34.4 °F 19.9 °F 48% 30.15 in 10.0 mi ENE 4.6 mph - N/A   Clear
8:53 AM 48.9 °F - 21.9 °F 35% 30.13 in 10.0 mi Calm Calm - N/A   Clear
9:53 AM 60.1 °F - 24.1 °F 25% 30.10 in 10.0 mi Calm Calm - N/A   Clear
10:53 AM 66.9 °F - 23.0 °F 19% 30.09 in 10.0 mi SW 3.5 mph - N/A   Clear
11:53 AM 72.0 °F - 17.1 °F 12% 30.07 in 10.0 mi SSW 13.8 mph 21.9 mph N/A   Clear
12:53 PM 73.9 °F - 10.0 °F 9% 30.04 in 10.0 mi SSW 15.0 mph 21.9 mph N/A   Clear
1:53 PM 75.9 °F - 10.0 °F 8% 30.02 in 10.0 mi SSW 18.4 mph 25.3 mph N/A   Clear
2:53 PM 78.1 °F - 12.9 °F 8% 30.00 in 10.0 mi SSW 18.4 mph 25.3 mph N/A   Clear
3:53 PM 77.0 °F - 10.0 °F 8% 29.99 in 10.0 mi SSW 16.1 mph 21.9 mph N/A   Clear
4:53 PM 75.0 °F - 6.1 °F 7% 29.98 in 10.0 mi WSW 8.1 mph - N/A   Clear
5:53 PM 75.0 °F - 8.1 °F 8% 29.96 in 10.0 mi West 6.9 mph - N/A   Clear
6:53 PM 73.9 °F - 7.0 °F 8% 29.96 in 10.0 mi Calm Calm - N/A   Clear
7:53 PM 63.0 °F - 8.1 °F 11% 29.97 in 10.0 mi Calm Calm - N/A   Clear
8:53 PM 50.0 °F - 12.9 °F 23% 30.00 in 10.0 mi ENE 6.9 mph - N/A   Clear
9:53 PM 46.0 °F 41.4 °F 12.9 °F 26% 30.00 in 10.0 mi ENE 9.2 mph - N/A   Clear
10:53 PM 44.1 °F 40.8 °F 12.9 °F 28% 29.99 in 10.0 mi ENE 5.8 mph - N/A   Clear
11:53 PM 37.0 °F 33.3 °F 12.9 °F 37% 30.00 in 10.0 mi East 4.6 mph - N/A   Clear